Location: Wanzleben
(52.0609°N, 11.4408°E)
Time: 03:54:37
(UTC+00:00)

ATLAS 2AS CENTAUR R/B - Pass Details

Date: 18 September 2020
Orbit: 939 x 1273 km, 63.7° (Epoch: 19 October)

Event Time Altitude Azimuth Distance (km) Brightness Sun altitude
Rises 19:14:13 0° 175° (S) 4,192 5.5 -17.5°
Enters shadow 19:16:57 - 166° (SSE) 3,390 4.9 -17.9°
Exits shadow 19:24:45 26° 99° (E) 2,265 3.8 -19.0°
Drops below altitude 10° 19:30:03 10° 58° (ENE) 3,246 4.9 -19.7°
Sets 19:33:17 0° 47° (NE) 4,189 5.6 -20.1°
